Location: Poughquag
(41.6090°N, 73.6820°W)
Time: 03:35:56
(UTC-04:00)

S-56A Canister/Altair - Pass Details

Date: 07 June 2020
Orbit: 633 x 2499 km, 38.9° (Epoch: 06 July)

Event Time Altitude Azimuth Distance (km) Brightness Sun altitude
Rises 09:35:19 0° 276° (W) 4,010 10.8 44.8°
Reaches altitude 10° 09:38:16 10° 264° (W) 3,300 10.5 45.3°
Maximum altitude 09:45:01 26° 211° (SSW) 2,779 10.5 46.6°
Drops below altitude 10° 09:54:01 10° 161° (SSE) 4,490 11.9 48.2°
Sets 09:58:55 0° 151° (SSE) 5,761 12.4 49.1°
